sat.trackr.live / text

‹ back to catalog

STARLINK-3720

NORAD 52136 · 2022-029BA

PAYLOAD ACTIVE UNKNOWN

§ Identity

Operator
Country
US
Launch date
2022-03-19
Launch site
AFETR
Launch vehicle
Mass (kg)
RCS (m²)

Purposes: comms

External: N2YO · Heavens-Above · Gunter

§ Orbital elements

Epoch: 2026-09-20T01:16:01.130304Z

Period
93.79 min
Inclination
53.1606°
Eccentricity
0.0001028
Mean motion
15.35406118 rev/d
Perigee alt
459.0 km
Apogee alt
460.4 km
Semi-major
6,837.9 km
B*
7.2142e-5
RAAN
270.7537°
Arg perigee
82.9655°
Mean anomaly
277.1464°
Rev number
25,035

§ Raw data

STARLINK-37201 52136U 22029BA  26263.05279086  .00002137  00000+0  72142-4 0  99902 52136  53.1606 270.7537 0001028  82.9655 277.1464 15.35406118250357

JSON: /api/v1/satellites/52136 · /tle

For live sub-satellite position, see the globe view (requires WebGL).

§ Visibility from observer

Set your observer location to see the next 7 days of passes ≥ 10°. The values pass through the URL so the page stays shareable.

No JS? Fill the form by hand. The geolocation button needs JavaScript.